TimeCST,TemperatureF,Dew PointF,Humidity,Sea Level PressureIn,VisibilityMPH,Wind Direction,Wind SpeedMPH,Gust SpeedMPH,PrecipitationIn,Events,Conditions,WindDirDegrees,DateUTC
12:53 AM,63.0,55.0,75,29.80,10.0,South,15.0,23.0,N/A,,Clear,180,2012-11-10 06:53:00
1:53 AM,63.0,55.0,75,29.80,10.0,South,15.0,-,N/A,,Clear,180,2012-11-10 07:53:00
2:53 AM,63.0,55.0,75,29.80,10.0,South,12.7,-,N/A,,Clear,180,2012-11-10 08:53:00
3:53 AM,64.9,54.0,68,29.79,10.0,South,15.0,25.3,N/A,,Clear,190,2012-11-10 09:53:00
4:53 AM,66.0,54.0,65,29.78,10.0,South,17.3,28.8,N/A,,Clear,190,2012-11-10 10:53:00
6:53 AM,64.9,53.1,65,29.80,10.0,South,13.8,23.0,N/A,,Clear,190,2012-11-10 12:53:00
7:53 AM,64.9,54.0,68,29.81,10.0,South,16.1,24.2,N/A,,Clear,190,2012-11-10 13:53:00
8:53 AM,66.9,54.0,63,29.81,10.0,SSW,18.4,32.2,N/A,,Clear,200,2012-11-10 14:53:00
9:53 AM,66.9,55.0,66,29.81,10.0,SSW,21.9,32.2,N/A,,Clear,200,2012-11-10 15:53:00
10:53 AM,69.1,55.0,61,29.80,10.0,South,23.0,36.8,N/A,,Clear,190,2012-11-10 16:53:00
11:53 AM,72.0,55.9,57,29.78,10.0,South,17.3,31.1,N/A,,Clear,180,2012-11-10 17:53:00
12:53 PM,72.0,54.0,53,29.75,10.0,South,21.9,35.7,N/A,,Clear,190,2012-11-10 18:53:00
1:53 PM,72.0,53.1,51,29.73,10.0,South,23.0,32.2,N/A,,Clear,190,2012-11-10 19:53:00
2:53 PM,72.0,52.0,49,29.71,10.0,South,18.4,29.9,N/A,,Clear,180,2012-11-10 20:53:00
3:53 PM,72.0,51.1,48,29.72,10.0,South,17.3,26.5,N/A,,Clear,180,2012-11-10 21:53:00
4:53 PM,71.1,48.9,45,29.71,10.0,South,15.0,26.5,N/A,,Clear,180,2012-11-10 22:53:00
5:53 PM,71.1,50.0,47,29.72,10.0,South,15.0,25.3,N/A,,Clear,170,2012-11-10 23:53:00
6:53 PM,70.0,50.0,49,29.73,10.0,South,19.6,27.6,N/A,,Clear,170,2012-11-11 00:53:00
7:53 PM,69.1,48.9,49,29.70,10.0,South,17.3,29.9,N/A,,Clear,180,2012-11-11 01:53:00
10:53 PM,66.0,52.0,60,29.70,10.0,South,20.7,32.2,N/A,,Clear,180,2012-11-11 04:53:00
11:53 PM,66.0,53.1,63,29.72,10.0,South,17.3,26.5,N/A,,Clear,190,2012-11-11 05:53:00